www.pogodaiklimat.ru

Погода и климат >> Архив погоды >> Россия >> Якутия >> Оймякон


АРХИВ ПОГОДЫ в Оймяконе

Время (UTC), дата Ветер
(напр.,м/с)
 
Видим.   Явления Облачность Т
(С)
Тd
(С)
f
(%)
Тe
(С)
Тes
(С)
Комфортность P
(гПа)
Po
(гПа)
Тmin
(С)
Tmax
(С)
R
(мм)
S
(см)
03 16.03 штиль 0 50 км ясно -20.1 -25.0 65 -20 -15 по сезону 1028.1 931.0
06 16.03 СВ 1 50 км ясно -17.8 -24.7 55 -21 -19 по сезону 1025.3 929.4
09 16.03 З 1 50 км ясно -22.2 -26.9 66 -25 -25 по сезону 1027.0 929.3 -14.8
12 16.03 З 2 50 км ясно -32.1 -35.0 75 -40 -40 опасность
обморожения
1031.4 929.4
15 16.03 ЮЗ 1 50 км ясно -35.6 -37.7 81 -40 -40 опасность
обморожения
1033.5 929.0
18 16.03 штиль 0 50 км ясно -36.7 -39.1 78 -37 -37 опасность
обморожения
1035.2 931.0
21 16.03 штиль 0 50 км ясно -37.9 -40.3 78 -38 -38 опасность
обморожения
1037.1 932.1 -37.9 35
00 17.03 штиль 0 50 км ясно -25.8 -28.9 75 -26 -22 по сезону 1032.5 932.9 -38.1
03 17.03 С 1 50 км ясно -19.5 -23.6 70 -22 -17 по сезону 1028.7 931.7
06 17.03 С 1 50 км 3/0
[Ci fib]
-14.6 -21.7 55 -17 -15 по сезону 1025.5 930.5
09 17.03 З 1 50 км 3/0
[Ci fib]
-17.6 -23.5 60 -20 -20 по сезону 1026.0 930.0 -12.2
12 17.03 СЗ 1 50 км 3/0
[Ci fib]
-26.8 -30.0 74 -31 -31 опасность
обморожения
1030.0 930.3
15 17.03 Ю 1 50 км 3/0
[Ci fib]
-29.3 -31.7 80 -33 -33 опасность
обморожения
1031.6 930.5
18 17.03 ЮЗ 1 50 км ясно -31.7 -33.4 85 -36 -36 опасность
обморожения
1032.7 930.8
21 17.03 З 1 50 км 1/0
[Ci fib]
-32.7 -34.4 85 -37 -37 опасность
обморожения
1033.6 931.2 -33.6 35
00 18.03 ЮЗ 1 50 км 3/0
[Ac trans Ci fib]
-24.1 -27.3 75 -28 -25 по сезону 1030.6 931.7
03 18.03 З 1 50 км 8/0
[Ac trans Ci fib]
-14.6 -19.7 65 -17 -13 тепло 1026.4 931.4
06 18.03 ЮЗ 1 50 км 4/0
[Ac trans Ci fib]
-9.1 -15.9 58 -11 -10 тепло 1023.7 930.8
09 18.03 З 2 50 км 3/0
[Ci fib]
-15.7 -22.7 55 -21 -21 по сезону 1026.4 931.0 -7.6
12 18.03 З 4 50 км 3/0
[Ci fib]
-20.1 -23.4 75 -29 -29 по сезону 1029.2 932.0
15 18.03 З 3 50 км 1/0
[Ci fib]
-19.5 -22.8 75 -27 -27 по сезону 1029.3 932.3
18 18.03 Ю 2 50 км 1/0
[Ci fib]
-25.0 -26.7 86 -32 -32 опасность
обморожения
1031.7 932.4
21 18.03 З 1 50 км ясно -31.0 -32.8 84 -35 -35 опасность
обморожения
1035.0 933.0 -31.4 35
00 19.03 штиль 0 50 км ясно -22.9 -26.1 75 -23 -19 по сезону 1031.6 933.0 -32.0
03 19.03 СВ 2 50 км ясно -15.8 -20.9 65 -21 -16 по сезону 1027.5 932.0
06 19.03 СЗ 4 50 км ясно -11.3 -18.5 55 -18 -17 по сезону 1024.7 931.0
09 19.03 СЗ 2 50 км ясно -15.4 -21.4 60 -20 -20 по сезону 1026.4 931.0 -11.0
12 19.03 ЮЗ 3 50 км ясно -28.7 -31.2 79 -38 -38 опасность
обморожения
1031.8 931.1
15 19.03 ЮЗ 2 50 км ясно -30.3 -32.1 84 -38 -38 опасность
обморожения
1032.6 931.1
18 19.03 СВ 1 50 км ясно -33.7 -35.3 85 -38 -38 опасность
обморожения
1034.0 931.1
21 19.03 штиль 0 50 км ясно -36.9 -38.5 85 -37 -37 опасность
обморожения
1036.3 931.7 -37.9 35
00 20.03 С 2 50 км ясно -27.2 -29.0 85 -34 -31 опасность
обморожения
1031.4 931.4
03 20.03 С 1 50 км ясно -19.3 -23.4 70 -22 -17 по сезону 1027.2 930.5
06 20.03 С 1 50 км ясно -15.1 -20.2 65 -18 -16 по сезону 1024.0 929.0
09 20.03 ЮВ 1 50 км ясно -18.2 -23.2 65 -21 -21 по сезону 1025.1 929.0 -13.2
12 20.03 штиль 0 50 км ясно -30.2 -31.9 85 -30 -30 по сезону 1030.7 929.5
15 20.03 штиль 0 50 км ясно -34.9 -36.4 86 -35 -35 опасность
обморожения
1033.0 939.6
18 20.03 З 1 50 км ясно -38.2 -39.7 86 -43 -43 опасность
обморожения
1034.9 930.0
21 20.03 З 1 50 км 10/0
[Ci fib]
-38.5 -40.1 85 -44 -43 опасность
обморожения
1036.2 931.0 -39.1 35
00 21.03 штиль 0 50 км 9/0
[Ci fib]
-26.2 -28.7 79 -26 -23 по сезону 1031.4 931.7
03 21.03 С 1 50 км 8/0
[Ci fib]
-20.3 -24.4 70 -23 -19 по сезону 1028.4 931.3
06 21.03 С 1 50 км 3/0
[Ci fib]
-15.9 -21.0 65 -19 -17 по сезону 1026.6 931.0
09 21.03 С 1 50 км 3/0
[Ci fib]
-18.1 -23.1 65 -21 -21 по сезону 1027.5 931.2 -15.3
12 21.03 З 1 50 км 3/0
[Ci fib]
-29.6 -31.3 85 -34 -34 опасность
обморожения
1032.3 931.2
15 21.03 ЮЗ 1 50 км ясно -33.4 -35.0 85 -38 -38 опасность
обморожения
1034.2 931.4
18 21.03 З 1 50 км ясно -35.8 -34.7 100 -41 -41 опасность
обморожения
1035.4 931.4
21 21.03 Ю 1 50 км 6/0
[Ac trans]
-32.6 -34.2 86 -37 -37 опасность
обморожения
1033.8 931.4 -36.9 35
00 22.03 СЗ 1 50 км слабый снег 9/6 1000 м
[Sc Ac trans]
-25.7 -28.1 80 -29 -28 по сезону 1031.3 931.8
03 22.03 СВ 2 50 км {снег} 9/9 1000 м
[Sc]
-18.1 -21.4 75 -24 -23 по сезону 1027.1 930.8
06 22.03 СВ 1 50 км {снег} 9/9 1000 м
[Sc]
-13.8 -18.1 70 -16 -16 по сезону 1024.4 929.9
09 22.03 СВ 2 50 км 9/9 1000 м
[Sc]
-14.8 -19.1 70 -20 -20 по сезону 1025.1 930.2 -13.0 0.0
12 22.03 З 1 50 км 1/0
[Ac trans]
-26.0 -28.4 80 -30 -30 по сезону 1030.2 930.6
15 22.03 З 1 50 км ясно -29.7 -31.5 84 -34 -34 опасность
обморожения
1032.1 931.0
18 22.03 ЮЗ 1 50 км ясно -33.2 -35.0 84 -38 -38 опасность
обморожения
1034.3 931.6
21 22.03 ЮЗ 1 50 км ясно -35.8 -37.4 85 -41 -40 опасность
обморожения
1036.8 932.6 -36.0 34

 

Местоположение метеостанции Оймякон (Якутия, Россия): широта 63.25 долгота 143.10 высота над уровнем моря 740 м.

В архиве по умолчанию представлена погода в Оймяконе за последнюю неделю. Архивные данные за месяц целиком и за предыдущие месяцы, начиная с января 2011 года, Вы можете получить, выбрав интересующий диапазон дат из раскрывающегося списка и нажав кнопку "Ввод!".

Внимание! Время в таблицах - всемирное. Для получения местного времени необходимо прибавить поправку, которая в Оймяконе равна 10 ч.

Смотрите также архив погоды в соседних городах и на ближайших метеорологических станциях:

Погода в Агаякане (Якутия, Россия) (71 км)
Погода в Юртах (Якутия, Россия) (110 км)
Погода в Делянкире (Якутия, Россия) (140 км)
Погода в Усть-Нере (Якутия, Россия) (142 км)
Погода в Восточной (Якутия, Россия) (175 км)
Погода в Сусумане (Магаданская область, Россия) (258 км)
Погода в Колымской (Магаданская область, Россия) (278 км)
Погода в Уеге (Хабаровский край, Россия) (282 км)
Погода в Теплом Ключе (Якутия, Россия) (322 км)
Погода в Ягодной (Магаданская область, Россия) (340 км)

Пояснения к столбцам:

Ветер - указаны скорость ветра в м/с - средняя за 10 мин, порывы в срок и между сроками (в фигурных скобках) и направление, откуда дует ветер: С - северный, СВ - северо-восточный, В - восточный, ЮВ - юго-восточный, Ю - южный, ЮЗ - юго-западный, З - западный, СЗ - северо-западный.
Видимость - горизонтальная дальность видимости в метрах или километрах. При видимости от 1 до 10 км при отсутствии осадков обычно наблюдается дымка, при ухудшении видимости до 1 км и менее - туман. В сухую погоду видимость может ухудшаться дымом, пылью или мглою.
Явления - указаны атмосферные явления, наблюдавшиеся в срок или в последний час перед сроком; фигурными скобками обозначены явления, наблюдавшиеся между сроками (за 1-3 часа до срока); квадратными скобками обозначены град или гололедные отложения с указанием их диаметра в мм.
Облачность - указаны через наклонную черту общая и нижняя облачность в баллах и высота нижней границы облаков в метрах; квадратными скобками обозначены формы облаков: Ci - перистые, Cs - перисто-слоистые, Cc - перисто-кучевые, Ac - высококучевые, As - высокослоистые, Sc - слоисто-кучевые, Ns - слоисто-дождевые, Cu - кучевые, Cb - кучево-дождевые. Подробнее классификацию облаков см. в Атласе облаков (PDF).
T - Температура воздуха - температура, измеренная на высоте 2 м над землей.
Td - Температура точки росы - температура, при понижении до которой содержащийся в воздухе водяной пар достигнет насыщения.
f - Относительная влажность воздуха - влажноcть воздуха, измеренная на высоте 2 м над землей.
Te - Эффективная температура - температура, которую ощущает одетый по сезону человек в тени. Характеристика душности погоды. При расчете учитывается влияние влажности воздуха и скорости ветра на теплоощущения человека.
Tes - Эффективная температура на солнце - температура, которую ощущает человек, с поправкой на солнечный нагрев. Характеристика знойности погоды. Зависит от высоты солнца над горизонтом, облачности и скорости ветра. Ночью, в пасмурную погоду, а также при ветре 12 м/с и более поправка равна нулю.
P - Атмосферное давление - приведенное к уровню моря атмосферное давление.
Po - Атмосферное давление - измеренное на уровне метеостанции атмосферное давление.
Tmin - Минимальная температура - минимум температуры воздуха на высоте 2 м над землей.
Tmax - Максимальная температура - максимум температуры воздуха на высоте 2 м над землей.
R - Количество осадков - Количество выпавших осадков, мм. При наведении курсора мыши на число - период времени, за который выпало указанное количество осадков.
S - Снежный покров - Высота снежного покрова, см. При наведении курсора мыши на число - состояние снежного покрова и степень покрытия местности в баллах.